Weather History for Indianapolis, IN

Change the Weather History Date:

Friday, November 1, 2013

  Actual Average Record
Temperature  
Mean Temperature 52 °F 50 °F  
Max Temperature 58 °F 59 °F 81 °F (1950)
Min Temperature 45 °F 40 °F 24 °F (1949)
Degree Days  
Heating Degree Days 13 15  
Month to date heating degree days 13 15  
Since 1 July heating degree days 393 416  
Cooling Degree Days 0 0  
Month to date cooling degree days 0 0  
Year to date cooling degree days 1160 1065  
Growing Degree Days 1 (Base 50)    
Moisture  
Dew Point 44 °F    
Average Humidity 75    
Maximum Humidity 93    
Minimum Humidity 57    
Precipitation  
Precipitation T in 0.12 in 1.95 in (1892)
Month to date precipitation T 0.12  
Year to date precipitation 38.25 35.69  
Snow  
Snow 0.00 in 0.00 in 0.40 in (1954)
Month to date snowfall 0.0 0.0  
Since 1 July snowfall T 0.4  
Since 1 September snowfall T 0.4  
Snow Depth 0.00 in    
Sea Level Pressure  
Sea Level Pressure 29.63 in    
Wind  
Wind Speed 14 mph (WSW)    
Max Wind Speed 26 mph    
Max Gust Speed 32 mph    
Visibility 10 miles    
Events Rain    
T = Trace of Precipitation, MM = Missing Value Source: NWS Daily Summary

Daily Weather History Graph

Daily Weather History Graph

Search for Another Location

Airport:

Trip Planner

Search our weather history database for the weather conditions in past years. The results will help you decide how hot, cold, wet, or windy it might be!

Date:

Astronomy

Nov. 01, 2013 Rise Set
Actual Time 8:14 AM EDT 6:42 PM EDT
Civil Twilight 7:46 AM EDT 7:10 PM EDT
Nautical Twilight 7:14 AM EDT 7:42 PM EDT
Astronomical Twilight 6:42 AM EDT 8:14 PM EDT
Moon 6:06 AM EDT (11/1) 5:35 PM EDT (11/1)
Length of Visible Light 11h 24m
Length of Day
10h 28m
Waning Crescent, 4% of the Moon is Illuminated
Nov 1
Waning Crescent
Nov 3
New
Nov 10
First Quarter
Nov 17
Full
Nov 25
Last Quarter

Hourly Weather History & Observations

Time (EDT) Temp. Windchill Dew Point Humidity Pressure Visibility Wind Dir Wind Speed Gust Speed Precip Events Conditions
12:19 AM 51.8 °F - 48.2 °F 88% 29.43 in 10.0 mi WNW 12.7 mph - N/A Rain Light Rain
12:36 AM 51.8 °F - 48.2 °F 88% 29.46 in 10.0 mi West 13.8 mph - N/A   Overcast
12:54 AM 52.0 °F - 48.9 °F 89% 29.46 in 10.0 mi West 13.8 mph - N/A   Overcast
1:06 AM 51.8 °F - 50.0 °F 94% 29.47 in 10.0 mi West 16.1 mph 23.0 mph N/A Rain Light Rain
1:54 AM 51.1 °F - 48.0 °F 89% 29.50 in 10.0 mi West 16.1 mph - N/A   Mostly Cloudy
2:02 AM 51.8 °F - 48.2 °F 88% 29.51 in 10.0 mi WSW 15.0 mph - N/A   Mostly Cloudy
2:54 AM 50.0 °F - 46.0 °F 86% 29.53 in 10.0 mi West 19.6 mph 26.5 mph N/A   Overcast
3:54 AM 48.0 °F - 44.1 °F 86% 29.57 in 10.0 mi WSW 17.3 mph 28.8 mph N/A   Mostly Cloudy
4:47 AM 46.4 °F 40.4 °F 42.8 °F 87% 29.58 in 10.0 mi WSW 13.8 mph - N/A   Scattered Clouds
4:54 AM 46.0 °F 39.3 °F 43.0 °F 89% 29.58 in 10.0 mi WSW 16.1 mph 21.9 mph N/A   Partly Cloudy
5:54 AM 45.0 °F 39.7 °F 42.1 °F 90% 29.60 in 10.0 mi SW 10.4 mph - N/A   Scattered Clouds
6:14 AM 46.4 °F 40.4 °F 42.8 °F 87% 29.61 in 10.0 mi SW 13.8 mph - N/A   Mostly Cloudy
6:32 AM 46.4 °F 40.4 °F 42.8 °F 87% 29.62 in 10.0 mi SW 13.8 mph - N/A   Overcast
6:54 AM 46.0 °F 39.9 °F 43.0 °F 89% 29.62 in 10.0 mi WSW 13.8 mph - N/A   Overcast
7:54 AM 46.0 °F 40.2 °F 43.0 °F 89% 29.62 in 10.0 mi SW 12.7 mph - N/A   Mostly Cloudy
8:54 AM 46.9 °F - 44.1 °F 90% 29.64 in 10.0 mi SW 10.4 mph - N/A   Mostly Cloudy
9:54 AM 48.0 °F - 45.0 °F 89% 29.67 in 10.0 mi SW 12.7 mph - N/A   Overcast
10:31 AM 48.2 °F - 44.6 °F 87% 29.66 in 10.0 mi SW 11.5 mph - N/A   Overcast
10:54 AM 48.9 °F - 45.0 °F 86% 29.67 in 10.0 mi WSW 15.0 mph - N/A   Mostly Cloudy
11:54 AM 51.1 °F - 45.0 °F 80% 29.67 in 10.0 mi WSW 16.1 mph 21.9 mph N/A   Mostly Cloudy
12:54 PM 55.0 °F - 45.0 °F 69% 29.67 in 10.0 mi WSW 15.0 mph - N/A   Mostly Cloudy
1:25 PM 55.4 °F - 44.6 °F 67% 29.66 in 10.0 mi SW 18.4 mph - N/A   Mostly Cloudy
1:54 PM 57.0 °F - 44.1 °F 62% 29.65 in 10.0 mi WSW 15.0 mph - N/A   Mostly Cloudy
2:54 PM 57.0 °F - 43.0 °F 59% 29.64 in 10.0 mi WSW 17.3 mph 25.3 mph N/A   Mostly Cloudy
3:54 PM 57.0 °F - 43.0 °F 59% 29.65 in 10.0 mi WSW 15.0 mph 25.3 mph N/A   Mostly Cloudy
4:54 PM 55.9 °F - 42.1 °F 60% 29.66 in 10.0 mi West 15.0 mph - N/A   Mostly Cloudy
5:54 PM 54.0 °F - 41.0 °F 62% 29.68 in 10.0 mi West 13.8 mph - N/A   Mostly Cloudy
6:54 PM 53.1 °F - 41.0 °F 64% 29.70 in 10.0 mi West 13.8 mph - N/A   Overcast
7:54 PM 51.1 °F - 39.9 °F 66% 29.73 in 10.0 mi WNW 17.3 mph - N/A   Overcast
8:54 PM 50.0 °F - 39.0 °F 66% 29.75 in 10.0 mi West 10.4 mph - N/A   Overcast
9:54 PM 48.9 °F - 37.9 °F 66% 29.75 in 10.0 mi WNW 13.8 mph - N/A   Overcast
10:54 PM 48.9 °F - 39.0 °F 69% 29.76 in 10.0 mi West 10.4 mph - N/A   Overcast
11:54 PM 48.9 °F - 39.9 °F 71% 29.77 in 10.0 mi West 12.7 mph - N/A   Overcast